Hurlburt Field, FL

7:27 PM CDT on June 22, 2017 (GMT -0500)
Hurlburt

Weather History for KHRT - December, 2011

Change the Weather History Date:

Friday, December 16, 2011

  Actual Average Record
Temperature  
Mean Temperature 61 °F -  
Max Temperature 71 °F 61 °F 75 °F (2000)
Min Temperature 51 °F 41 °F 30 °F (2004)
Degree Days  
Heating Degree Days 4    
Growing Degree Days 11 (Base 50)    
Moisture  
Dew Point 58 °F    
Average Humidity 98    
Maximum Humidity 100    
Minimum Humidity 73    
Precipitation  
Precipitation 0.00 in - - ()
Sea Level Pressure  
Sea Level Pressure 30.18 in    
Wind  
Wind Speed 2 mph (NE)    
Max Wind Speed 8 mph    
Max Gust Speed -    
Visibility 3 miles    
Events Fog    
Averages and records for this station are not official NWS values.
T = Trace of Precipitation, MM = Missing Value Source: NWS Daily Summary

Daily Weather History Graph

Daily Weather History Graph

Search for Another Location

Airport or City:

Trip Planner

Search our weather history database for the weather conditions in past years. The results will help you decide how hot, cold, wet, or windy it might be!

Date:

Astronomy

Dec. 16, 2011 Rise Set
Actual Time 6:36 AM CST 4:48 PM CST
Civil Twilight 6:10 AM CST 5:14 PM CST
Nautical Twilight 5:40 AM CST 5:44 PM CST
Astronomical Twilight 5:10 AM CST 6:13 PM CST
Moon 10:56 PM CST (12/16) 10:43 AM CST (12/16)
Length of Visible Light 11h 04m
Length of Day
10h 11m
Waning Gibbous, 64% of the Moon is Illuminated
Dec 16
Waning Gibbous
Dec 17
Last Quarter
Dec 24
New
Jan 1
First Quarter
Jan 9
Full

Hourly Weather History & Observations

Time (CST) Temp. Dew Point Humidity Pressure Visibility Wind Dir Wind Speed Gust Speed Precip Events Conditions
12:08 AM 64.4 °F 62.6 °F 94% 30.17 in 10.0 mi SE 6.9 mph - N/A   Mostly Cloudy
12:19 AM 64.4 °F 62.6 °F 94% 30.16 in 10.0 mi ESE 6.9 mph - N/A   Scattered Clouds
12:41 AM 60.8 °F 60.8 °F 100% 30.16 in 9.0 mi ENE 3.5 mph - N/A   Partly Cloudy
12:51 AM 59.0 °F 59.0 °F 100% 30.16 in 2.0 mi Calm Calm - N/A   Partly Cloudy
12:52 AM 59.0 °F 59.0 °F 100% 30.16 in 1.8 mi Calm Calm - N/A   Partly Cloudy
12:53 AM 59.0 °F 59.0 °F 100% 30.16 in 1.5 mi Calm Calm - N/A   Clear
12:54 AM 59.0 °F 59.0 °F 100% 30.16 in 1.2 mi Calm Calm - N/A   Clear
12:55 AM 58.8 °F 58.5 °F 99% 30.16 in 1.2 mi Calm Calm - N/A   Clear
12:57 AM 59.0 °F 59.0 °F 100% 30.16 in 1.0 mi Calm Calm - N/A   Clear
12:58 AM 59.0 °F 59.0 °F 100% 30.16 in 1.0 mi Calm Calm - N/A   Clear
1:03 AM 59.0 °F 57.2 °F 94% 30.16 in 0.8 mi North 3.5 mph - N/A   Clear
1:25 AM 57.2 °F 57.2 °F 100% 30.16 in 0.5 mi Calm Calm - N/A Fog Fog
1:36 AM 57.2 °F 55.4 °F 94% 30.16 in 0.5 mi Calm Calm - N/A Fog Fog
1:55 AM 55.6 °F 55.2 °F 99% 30.16 in 0.5 mi Calm Calm - N/A Fog Fog
2:02 AM 55.4 °F 55.4 °F 100% 30.16 in 0.2 mi Calm Calm - N/A Fog Fog
2:14 AM 55.4 °F 55.4 °F 100% 30.16 in 0.5 mi Calm Calm - N/A Fog Fog
2:38 AM 57.2 °F 57.2 °F 100% 30.16 in 0.8 mi NE 3.5 mph - N/A   Clear
2:42 AM 57.2 °F 57.2 °F 100% 30.16 in 1.0 mi Calm Calm - N/A   Clear
2:48 AM 57.2 °F 57.2 °F 100% 30.16 in 0.8 mi Calm Calm - N/A   Clear
2:51 AM 57.2 °F 57.2 °F 100% 30.16 in 0.8 mi NE 3.5 mph - N/A   Clear
2:52 AM 57.2 °F 57.2 °F 100% 30.16 in 0.8 mi ENE 3.5 mph - N/A   Clear
2:55 AM 56.5 °F 56.5 °F 100% 30.15 in 1.0 mi ENE 3.5 mph - N/A   Clear
2:58 AM 55.4 °F 55.4 °F 100% 30.15 in 0.8 mi NE 3.5 mph - N/A   Clear
3:04 AM 55.4 °F 55.4 °F 100% 30.15 in 0.8 mi Calm Calm - N/A   Clear
3:11 AM 55.4 °F 55.4 °F 100% 30.15 in 0.8 mi Calm Calm - N/A   Clear
3:14 AM 55.4 °F 55.4 °F 100% 30.15 in 1.0 mi Calm Calm - N/A   Clear
3:19 AM 55.4 °F 55.4 °F 100% 30.15 in 1.2 mi Calm Calm - N/A   Clear
3:23 AM 55.4 °F 55.4 °F 100% 30.15 in 1.5 mi Calm Calm - N/A   Clear
3:25 AM 55.4 °F 55.4 °F 100% 30.15 in 1.8 mi Calm Calm - N/A   Clear
3:26 AM 55.4 °F 55.4 °F 100% 30.15 in 2.0 mi Calm Calm - N/A   Clear
3:28 AM 55.4 °F 55.4 °F 100% 30.15 in 3.0 mi NNE 3.5 mph - N/A   Clear
3:45 AM 55.4 °F 55.4 °F 100% 30.15 in 9.0 mi NE 3.5 mph - N/A   Mostly Cloudy
3:55 AM 56.1 °F 56.1 °F 100% 30.14 in 7.0 mi NE 3.5 mph - N/A   Mostly Cloudy
3:56 AM 55.4 °F 55.4 °F 100% 30.14 in 7.0 mi NE 3.5 mph - N/A   Mostly Cloudy
4:13 AM 55.4 °F 55.4 °F 100% 30.15 in 10.0 mi Calm Calm - N/A   Scattered Clouds
4:30 AM 55.4 °F 55.4 °F 100% 30.15 in 8.0 mi NE 3.5 mph - N/A   Clear
4:54 AM 53.6 °F 53.6 °F 100% 30.15 in 4.0 mi NE 3.5 mph - N/A   Clear
4:55 AM 53.6 °F 53.2 °F 99% 30.15 in 4.0 mi NNE 3.5 mph - N/A   Partly Cloudy
5:00 AM 53.6 °F 53.6 °F 100% 30.15 in 2.5 mi NNE 3.5 mph - N/A   Partly Cloudy
5:04 AM 53.6 °F 51.8 °F 94% 30.15 in 1.8 mi NNE 3.5 mph - N/A   Partly Cloudy
5:05 AM 51.8 °F 51.8 °F 100% 30.15 in 1.5 mi NNE 4.6 mph - N/A   Clear
5:06 AM 51.8 °F 51.8 °F 100% 30.15 in 1.2 mi NNE 4.6 mph - N/A   Clear
5:07 AM 51.8 °F 51.8 °F 100% 30.15 in 1.2 mi NNE 4.6 mph - N/A   Clear
5:08 AM 51.8 °F 51.8 °F 100% 30.15 in 1.0 mi NNE 4.6 mph - N/A   Clear
5:12 AM 51.8 °F 51.8 °F 100% 30.15 in 1.2 mi NE 3.5 mph - N/A   Clear
5:14 AM 51.8 °F 51.8 °F 100% 30.15 in 1.2 mi ENE 3.5 mph - N/A   Clear
5:15 AM 51.8 °F 51.8 °F 100% 30.15 in 1.5 mi ENE 3.5 mph - N/A   Clear
5:16 AM 53.6 °F 53.6 °F 100% 30.15 in 2.0 mi ENE 3.5 mph - N/A   Clear
5:17 AM 53.6 °F 53.6 °F 100% 30.15 in 2.5 mi ENE 3.5 mph - N/A   Clear
5:18 AM 53.6 °F 53.6 °F 100% 30.15 in 3.0 mi ENE 3.5 mph - N/A   Clear
5:32 AM 53.6 °F 53.6 °F 100% 30.15 in 9.0 mi Calm Calm - N/A   Clear
5:35 AM 53.6 °F 53.6 °F 100% 30.15 in 9.0 mi ENE 3.5 mph - N/A   Clear
5:55 AM 54.9 °F 54.9 °F 100% 30.15 in 10.0 mi Calm Calm - N/A   Clear
6:12 AM 55.4 °F 55.4 °F 100% 30.16 in 9.0 mi Calm Calm - N/A   Clear
6:14 AM 55.4 °F 55.4 °F 100% 30.16 in 9.0 mi Calm Calm - N/A   Clear
6:55 AM 54.7 °F 54.3 °F 99% 30.17 in 9.0 mi NNE 4.6 mph - N/A   Clear
7:06 AM 55.4 °F 55.4 °F 100% 30.16 in 9.0 mi NNE 5.8 mph - N/A   Partly Cloudy
7:22 AM 57.2 °F 57.2 °F 100% 30.17 in 10.0 mi NNE 4.6 mph - N/A   Mostly Cloudy
7:56 AM 59.0 °F 57.2 °F 94% 30.19 in 10.0 mi ENE 4.6 mph - N/A   Mostly Cloudy
8:55 AM 66.2 °F 62.6 °F 88% 30.22 in 10.0 mi East 4.6 mph - N/A   Partly Cloudy
9:55 AM 69.8 °F 62.6 °F 78% 30.22 in 10.0 mi SE 8.1 mph - N/A   Clear
10:55 AM 69.8 °F 62.6 °F 78% 30.22 in 10.0 mi SE 5.8 mph - N/A   Scattered Clouds
11:55 AM 69.8 °F 62.6 °F 78% 30.20 in 10.0 mi SE 8.1 mph - N/A   Partly Cloudy
12:55 PM 71.6 °F 62.6 °F 73% 30.17 in 10.0 mi Variable 5.8 mph - N/A   Clear
1:55 PM 71.2 °F 63.9 °F 77% 30.16 in 10.0 mi SSE 4.6 mph - N/A   Clear
2:55 PM 69.4 °F 64.2 °F 83% 30.16 in 10.0 mi South 5.8 mph - N/A   Clear
3:55 PM 68.5 °F 65.1 °F 89% 30.17 in 10.0 mi SSE 5.8 mph - N/A   Clear
4:55 PM 65.7 °F 64.0 °F 94% 30.18 in 10.0 mi SSE 4.6 mph - N/A   Clear
5:37 PM 64.4 °F 64.4 °F 100% 30.18 in 8.0 mi Calm Calm - N/A   Scattered Clouds
5:55 PM 65.1 °F 64.4 °F 98% 30.18 in 4.0 mi Calm Calm - N/A   Partly Cloudy
6:03 PM 64.4 °F 64.4 °F 100% 30.18 in 6.0 mi Calm Calm - N/A   Partly Cloudy
6:34 PM 64.4 °F 64.4 °F 100% 30.19 in 5.0 mi Calm Calm - N/A   Clear
6:35 PM 64.4 °F 64.4 °F 100% 30.19 in 2.5 mi Calm Calm - N/A   Clear
6:41 PM 64.4 °F 64.4 °F 100% 30.19 in 1.8 mi Calm Calm - N/A   Partly Cloudy
6:45 PM 64.4 °F 64.4 °F 100% 30.19 in 2.5 mi Calm Calm - N/A   Scattered Clouds
6:46 PM 64.4 °F 64.4 °F 100% 30.19 in 3.0 mi Calm Calm - N/A   Scattered Clouds
6:49 PM 64.4 °F 64.4 °F 100% 30.19 in 2.5 mi Calm Calm - N/A   Mostly Cloudy
6:50 PM 64.4 °F 64.4 °F 100% 30.19 in 2.5 mi Calm Calm - N/A   Mostly Cloudy
6:52 PM 64.4 °F 64.4 °F 100% 30.19 in 1.8 mi Calm Calm - N/A   Mostly Cloudy
6:53 PM 64.4 °F 62.6 °F 94% 30.19 in 1.2 mi Calm Calm - N/A   Mostly Cloudy
6:54 PM 62.6 °F 62.6 °F 100% 30.19 in 1.0 mi Calm Calm - N/A   Mostly Cloudy
6:55 PM 63.1 °F 62.8 °F 99% 30.19 in 1.0 mi Calm Calm - N/A   Mostly Cloudy
6:56 PM 62.6 °F 62.6 °F 100% 30.19 in 0.8 mi Calm Calm - N/A   Mostly Cloudy
6:57 PM 62.6 °F 62.6 °F 100% 30.19 in 0.8 mi Calm Calm - N/A   Mostly Cloudy
7:04 PM 62.6 °F 62.6 °F 100% 30.19 in 1.0 mi Calm Calm - N/A   Mostly Cloudy
7:13 PM 62.6 °F 60.8 °F 94% 30.20 in 0.8 mi Calm Calm - N/A   Scattered Clouds
7:14 PM 62.6 °F 60.8 °F 94% 30.19 in 0.5 mi Calm Calm - N/A Fog Fog
7:16 PM 60.8 °F 60.8 °F 100% 30.18 in 2.0 mi NNE 1.2 mph - N/A   Scattered Clouds
7:21 PM 60.8 °F 60.8 °F 100% 30.18 in 1.0 mi Calm Calm - N/A   Partly Cloudy
7:25 PM 62.6 °F 60.8 °F 94% 30.19 in 2.5 mi Calm Calm - N/A   Scattered Clouds
7:26 PM 62.6 °F 60.8 °F 94% 30.19 in 3.0 mi Calm Calm - N/A   Scattered Clouds
7:55 PM 63.3 °F 62.6 °F 97% 30.20 in 10.0 mi Calm Calm - N/A   Clear
8:11 PM 60.8 °F 60.8 °F 100% 30.20 in 2.5 mi Calm Calm - N/A   Clear
8:13 PM 60.8 °F 60.8 °F 100% 30.20 in 1.8 mi Calm Calm - N/A   Clear
8:14 PM 60.8 °F 60.8 °F 100% 30.20 in 1.2 mi Calm Calm - N/A   Clear
8:15 PM 60.8 °F 60.8 °F 100% 30.20 in 1.0 mi Calm Calm - N/A   Clear
8:16 PM 60.8 °F 59.0 °F 94% 30.20 in 0.8 mi Calm Calm - N/A   Clear
8:18 PM 60.8 °F 59.0 °F 94% 30.20 in 0.5 mi North 3.5 mph - N/A Fog Fog
8:22 PM 59.0 °F 59.0 °F 100% 30.20 in 0.5 mi Calm Calm - N/A Fog Fog
8:30 PM 59.0 °F 59.0 °F 100% 30.20 in 0.8 mi North 3.5 mph - N/A   Clear
8:36 PM 59.0 °F 59.0 °F 100% 30.20 in 0.8 mi NNE 3.5 mph - N/A   Clear
8:37 PM 59.0 °F 59.0 °F 100% 30.20 in 1.0 mi NNE 3.5 mph - N/A   Clear
8:39 PM 59.0 °F 59.0 °F 100% 30.20 in 1.2 mi NNE 3.5 mph - N/A   Clear
8:40 PM 59.0 °F 59.0 °F 100% 30.20 in 1.5 mi NNE 3.5 mph - N/A   Clear
8:42 PM 59.0 °F 59.0 °F 100% 30.20 in 1.8 mi North 3.5 mph - N/A   Clear
8:43 PM 59.0 °F 59.0 °F 100% 30.20 in 1.5 mi NNE 3.5 mph - N/A   Clear
8:44 PM 59.0 °F 59.0 °F 100% 30.20 in 1.2 mi NNE 3.5 mph - N/A   Clear
8:46 PM 59.0 °F 59.0 °F 100% 30.20 in 1.0 mi NNE 3.5 mph - N/A   Clear
8:47 PM 59.0 °F 59.0 °F 100% 30.20 in 0.8 mi North 3.5 mph - N/A   Clear
8:50 PM 59.0 °F 59.0 °F 100% 30.20 in 0.5 mi Calm Calm - N/A Fog Fog
8:52 PM 59.0 °F 59.0 °F 100% 30.19 in 0.5 mi Calm Calm - N/A Fog Fog
8:55 PM 58.8 °F 58.8 °F 100% 30.20 in 0.5 mi Calm Calm - N/A Fog Fog
9:13 PM 59.0 °F 59.0 °F 100% 30.20 in 0.2 mi North 4.6 mph - N/A Fog Fog
9:14 PM 59.0 °F 59.0 °F 100% 30.20 in 0.2 mi North 4.6 mph - N/A Fog Fog
9:31 PM 59.0 °F 59.0 °F 100% 30.20 in 0.5 mi North 4.6 mph - N/A Fog Fog
9:55 PM 58.5 °F 58.5 °F 100% 30.20 in 0.5 mi Calm Calm - N/A Fog Fog
10:09 PM 57.2 °F 57.2 °F 100% 30.20 in 0.8 mi Calm Calm - N/A   Mist
10:14 PM 57.2 °F 57.2 °F 100% 30.20 in 0.5 mi Calm Calm - N/A Fog Fog
10:55 PM 57.4 °F 57.4 °F 100% 30.21 in 0.5 mi Calm Calm - N/A Fog Fog
11:11 PM 57.2 °F 57.2 °F 100% 30.20 in 0.8 mi Calm Calm - N/A   Mist
11:12 PM 57.2 °F 57.2 °F 100% 30.20 in 0.8 mi Calm Calm - N/A   Mist
11:15 PM 57.2 °F 57.2 °F 100% 30.20 in 1.0 mi Calm Calm - N/A   Mist
11:16 PM 57.2 °F 57.2 °F 100% 30.20 in 0.8 mi Calm Calm - N/A   Mist
11:22 PM 57.2 °F 57.2 °F 100% 30.20 in 0.5 mi Calm Calm - N/A Fog Fog
11:23 PM 57.2 °F 57.2 °F 100% 30.20 in 0.5 mi Calm Calm - N/A Fog Fog
11:40 PM 57.2 °F 57.2 °F 100% 30.20 in 0.5 mi North 3.5 mph - N/A Fog Fog
11:41 PM 57.2 °F 57.2 °F 100% 30.19 in 0.8 mi North 3.5 mph - N/A   Mist
11:43 PM 57.2 °F 57.2 °F 100% 30.19 in 0.8 mi Calm Calm - N/A   Mist
11:44 PM 57.2 °F 57.2 °F 100% 30.20 in 1.0 mi Calm Calm - N/A   Mist
11:45 PM 57.2 °F 57.2 °F 100% 30.20 in 1.2 mi Calm Calm - N/A   Partly Cloudy
11:46 PM 57.2 °F 57.2 °F 100% 30.19 in 1.8 mi Calm Calm - N/A   Partly Cloudy
11:47 PM 57.2 °F 57.2 °F 100% 30.20 in 2.0 mi Calm Calm - N/A   Partly Cloudy
11:48 PM 57.2 °F 57.2 °F 100% 30.20 in 3.0 mi Calm Calm - N/A   Partly Cloudy
11:53 PM 57.2 °F 57.2 °F 100% 30.20 in 2.0 mi Calm Calm - N/A   Partly Cloudy
11:54 PM 57.2 °F 57.2 °F 100% 30.20 in 1.5 mi Calm Calm - N/A   Partly Cloudy
11:55 PM 56.3 °F 56.3 °F 100% 30.20 in 1.2 mi Calm Calm - N/A   Partly Cloudy
11:56 PM 55.4 °F 55.4 °F 100% 30.19 in 1.0 mi Calm Calm - N/A   Mist
11:57 PM 55.4 °F 55.4 °F 100% 30.19 in 0.8 mi Calm Calm - N/A   Scattered Clouds
11:59 PM 55.4 °F 55.4 °F 100% 30.19 in 0.5 mi Calm Calm - N/A Fog Fog